Regional Weather Roundup
Issued by NWS

Home | Current Version | Previous Version | Text Only | Print | Product List | Glossary On
Versions: 1 2 3 4 5 6 7 8 9 10 11 12 13 14 15 16 17 18 19 20 21 22 23 24 25 26 27 28 29 30 31 32 33 34 35 36 37 38 39 40 41 42 43 44 45 46 47 48 49 50
000
ASUS42 KFFC 292003
RWRGA
WEATHER ROUNDUP FOR GEORGIA
NATIONAL WEATHER SERVICE PEACHTREE CITY GA
400 PM EDT FRI AUG 29 2014

NOTE: "FAIR" INDICATES FEW OR NO CLOUDS BELOW 12,000 FEET WITH NO
SIGNIFICANT WEATHER AND/OR OBSTRUCTIONS TO VISIBILITY.

* = USE WITH CAUTION. THE STATIONS MARKED WITH AN ASTERISK MAY NOT
REPORT WEATHER SUCH AS PRECIPITATION, FOG, OR THUNDER AND ARE NOT
QUALITY CONTROLLED BY NWS.

THE REMARK "TC" DENOTES TEMPERATURE READING IN DEGREES CELSIUS.

GAZ001>058-292100-
NORTH GEORGIA

CITY           SKY/WX    TMP DP  RH WIND       PRES   REMARKS
ATLANTA        MOSUNNY   90  57  32 SE5       30.05F
ATHENS         PTSUNNY   93  54  26 CALM      30.04F HX  91
CHAMBLEE       SUNNY     92  53  26 VRB6      30.05F
PEACHTREE CITY MOSUNNY   93  54  26 CALM      30.04F HX  91
ROME           SUNNY     94  57  28 S7        30.01F HX  92
WEST ATLANTA   MOSUNNY   92  57  30 SW7       30.04F HX  90
GAINESVILLE    SUNNY     92  56  29 VRB7      30.09F HX  90
CARTERSVILLE   SUNNY     93  55  27 S8        30.04F HX  91


CITY           SKY/WX    TMP DP  RH WIND       PRES   REMARKS
DALTON*        SUNNY     91  55  29 S5        30.03F
LAWRENCEVILLE* SUNNY     93  52  24 S5        30.06F HX  90
MARIETTA       MOSUNNY   89  56  33 E7        30.06F
KENNESAW*      MOSUNNY   91  55  29 S10       30.07F
$$

GAZ059>098-102>109-292100-
CENTRAL GEORGIA

CITY           SKY/WX    TMP DP  RH WIND       PRES   REMARKS
AUGUSTA-BUSH   SUNNY     95  56  26 SE9       30.03F HX  93
AUGUSTA-DANIEL SUNNY     95  56  26 S6        30.05F HX  93
COLUMBUS       MOSUNNY   93  59  31 S8        30.01F HX  92
MACON          SUNNY     95  58  28 SE9       30.02F HX  94
ROBINS AFB     SUNNY     95  60  31 E10       30.02F HX  95


CITY           SKY/WX    TMP DP  RH WIND       PRES   REMARKS
LAGRANGE*      SUNNY     95  61  32 S3        30.02F HX  95
SYLVANIA*      MOSUNNY   91  65  41 CALM      30.04F HX  93
MILLEDGEVILLE* SUNNY     97  61  30 E3        30.03F HX  97
$$

GAZ099>101-110>166-292100-
SOUTH GEORGIA

CITY           SKY/WX    TMP DP  RH WIND       PRES   REMARKS
SAVANNAH       MOSUNNY   89  70  53 SE12      30.04F HX  94
VALDOSTA       PTSUNNY   95  67  39 SE8G17    30.01F HX  99
ALMA           SUNNY     94  62  34 SE7       30.02F HX  94
ST SIMONS      SUNNY     87  73  62 E12       30.05F HX  94
FT STEWART     MOSUNNY   91  69  47 E12       30.02F HX  95
ALBANY         MOSUNNY   93  65  39 SW5       30.02S HX  95
HUNTER AFB     SUNNY     90  71  54 SE9       30.03F HX  96
MOODY AFB      MOSUNNY   94  65  38 E6        30.02F HX  96
BRUNSWICK      SUNNY     90  68  48 SE10      30.05F HX  93


CITY           SKY/WX    TMP DP  RH WIND       PRES   REMARKS
BAINBRIDGE*    LGT RAIN  79  77  94 W13       30.05R
MOULTRIE*      PTSUNNY   93  64  38 SE6       30.02S HX  95
VIDALIA*         N/A     93  63  36 CALM      30.03F HX  94
WAYCROSS*      MOSUNNY   98  66  34 S7        30.01F HX 101
DOUGLAS*       SUNNY     99  55  23 CALM      30.03F HX  97
$$



USA.gov is the U.S. government's official web portal to all federal, state and local government web resources and services.